Wind_Speed
23 23 24 24 24 24 24 24 24 23 24 25 25 26 26 26 27 27 26 26 26 27 30 31 32 33 34 34 35 35 35 36 37 37 38 39 39 38
23 23 24 24 23 23 23 24 23 23 23 24 24 24 24 24 25 26 26 26 27 26 27 29 30 31 33 33 34 34 35 36 36 37 37 38 38 38
23 23 23 23 22 22 23 23 23 23 22 22 23 23 23 23 23 24 26 26 27 27 28 29 29 30 31 31 32 33 34 34 35 34 36 37 37 37
22 22 22 22 22 21 22 22 23 22 22 21 22 22 22 22 22 22 24 25 26 27 27 28 28 29 30 30 31 32 33 33 34 34 35 35 36 36
21 22 21 22 21 21 22 22 23 22 22 22 21 21 21 21 22 22 23 24 24 26 27 27 27 28 29 31 31 31 32 32 34 34 34 34 35 36
21 21 22 22 22 22 22 23 23 23 23 23 22 21 21 22 22 22 24 24 24 26 26 27 27 28 29 30 30 31 31 31 31 32 32 33 34 35
21 22 22 22 22 22 23 23 23 23 23 23 23 23 22 22 22 23 23 23 23 24 25 25 26 27 28 29 30 30 30 30 31 32 31 32 33 33
21 21 21 21 22 22 22 22 22 23 23 23 24 24 23 23 23 23 23 23 24 23 24 24 25 25 27 28 29 30 30 31 31 31 31 31 32 33
21 21 22 22 22 22 22 22 23 23 24 24 25 25 25 24 24 24 23 24 25 25 24 25 25 26 26 27 28 29 29 30 31 32 31 32 33 34
21 22 22 22 23 23 23 23 24 24 25 25 26 25 25 25 25 25 25 25 25 25 25 25 25 26 26 26 26 26 26 28 29 30 30 31 32 33
21 21 22 23 23 23 23 24 24 25 25 26 26 26 26 26 25 25 25 25 25 24 24 24 24 24 24 24 25 25 25 26 27 28 29 30 31 32
21 21 22 23 23 24 24 25 25 25 25 26 25 25 25 25 25 25 24 23 24 24 24 24 24 24 23 23 23 24 25 25 26 27 28 29 29 30
20 21 22 23 23 24 25 26 26 25 25 25 25 25 25 24 24 24 24 23 23 23 23 23 23 23 23 23 23 24 24 25 26 26 26 27 28 29
22 22 23 24 25 26 26 26 26 25 25 25 25 25 24 23 23 22 22 22 22 23 23 23 23 23 23 23 23 23 23 24 25 25 26 27 28 29
22 23 24 25 25 26 26 26 25 25 25 25 24 24 23 23 23 22 22 23 23 23 23 23 23 23 23 23 23 24 23 24 24 25 26 27 27 29
23 23 24 25 26 26 26 26 26 26 25 25 24 23 23 23 23 23 22 22 23 23 22 22 22 22 23 23 23 23 23 23 24 25 26 27 28 29
24 25 25 26 27 27 27 27 26 26 26 25 24 23 23 23 23 23 23 23 24 23 21 21 22 22 22 22 22 22 22 23 24 25 26 27 28 29
26 26 27 27 27 27 27 26 26 26 26 26 24 24 24 23 23 24 24 23 23 23 22 21 21 22 21 22 22 22 22 23 24 24 26 27 28 29
27 27 28 28 28 27 27 27 27 26 26 26 25 25 25 25 24 25 24 24 23 23 23 23 23 23 23 22 22 23 23 24 25 25 25 26 27 28
27 28 28 28 27 27 27 27 27 26 26 26 25 25 25 25 25 25 25 24 23 23 23 23 23 23 23 23 23 23 24 24 25 26 25 26 27 27
28 28 29 28 28 28 29 28 28 27 27 26 25 25 25 26 26 25 24 23 23 23 23 24 24 23 23 22 22 23 23 24 25 25 25 26 26 27
29 29 29 29 29 29 29 29 29 28 27 27 26 25 25 25 25 24 24 24 24 23 22 23 24 24 23 22 22 22 23 23 24 25 25 26 26 26
29 29 29 30 30 30 30 30 30 29 28 27 27 26 26 25 24 23 23 24 23 23 22 22 23 23 24 24 23 23 23 23 23 23 23 25 26 26
Wind_Direction
304 304 304 303 302 301 300 299 297 296 295 293 292 289 288 284 280 277 275 272 271 268 264 261 260 259 259 258 257 256 256 256 254 253 251 250 250 249
305 307 306 304 303 304 302 300 298 296 294 294 295 292 289 287 283 279 278 273 272 271 268 264 262 261 261 260 258 257 256 256 254 252 251 249 248 247
304 307 307 305 306 305 304 302 301 299 297 296 296 296 292 288 284 282 279 275 273 272 270 267 265 262 262 260 258 258 256 256 255 254 252 248 246 245
304 307 307 306 306 305 305 304 303 301 300 299 298 296 294 292 288 285 283 278 275 273 272 270 266 262 262 260 259 258 257 256 255 254 252 249 247 245
306 306 306 307 307 307 306 305 303 301 300 299 297 295 294 294 292 287 284 280 277 274 273 272 268 263 262 260 259 258 256 255 254 254 252 250 248 247
309 310 308 307 309 309 307 305 303 302 300 299 297 295 294 293 292 289 285 282 280 278 275 271 268 264 263 261 259 258 256 254 253 252 251 252 250 247
312 311 310 309 311 311 309 306 303 302 300 297 297 298 295 293 291 290 288 285 283 281 276 274 272 269 266 263 260 259 257 255 253 252 251 251 249 246
313 313 313 313 313 312 311 309 306 305 302 301 301 299 297 294 292 291 290 287 284 283 281 277 276 273 269 263 261 259 257 254 253 252 251 249 247 246
315 315 314 314 314 314 313 311 309 308 306 303 302 301 297 294 292 289 289 289 286 285 284 282 278 276 274 269 263 261 257 255 253 252 251 251 250 249
314 315 315 315 315 314 313 310 308 307 306 304 301 301 299 296 291 289 289 290 290 288 285 283 280 277 273 270 266 261 258 257 255 253 251 249 249 249
317 317 317 317 317 314 313 312 310 309 307 305 303 300 299 298 295 292 291 289 290 288 285 284 281 279 275 269 266 262 258 257 254 252 251 250 249 249
318 318 317 318 319 316 315 314 313 312 309 308 306 303 302 301 297 293 292 291 290 289 287 285 282 280 278 272 268 264 260 256 254 253 251 250 249 249
319 320 319 319 318 317 316 314 313 312 312 310 309 308 305 302 299 295 293 292 292 290 287 285 284 282 279 274 271 267 262 257 254 252 252 252 252 251
323 322 321 320 321 320 319 317 316 315 314 312 311 310 306 304 302 298 295 294 294 291 287 286 283 281 280 274 270 267 263 259 257 255 253 252 252 252
326 325 324 321 321 323 323 322 320 318 316 314 313 313 310 305 302 300 297 293 294 293 289 287 283 279 278 275 271 267 263 261 259 256 255 252 252 253
330 328 326 325 325 325 325 323 321 320 318 317 315 313 312 309 303 301 299 296 294 292 288 287 285 281 277 274 271 267 262 260 260 259 257 255 253 253
334 331 330 329 329 328 328 326 323 322 321 318 315 313 312 310 306 303 299 296 295 292 287 284 285 284 279 275 271 267 262 262 261 258 257 257 256 255
336 334 333 333 332 330 328 327 325 324 321 320 315 312 312 311 309 307 302 299 297 292 289 285 283 284 280 276 272 266 262 261 261 261 259 258 257 257
335 335 334 332 331 330 329 328 327 326 324 321 317 313 311 310 308 307 305 301 297 294 290 287 285 284 281 276 272 268 265 264 264 263 262 260 259 257
334 334 335 335 334 333 332 331 329 328 326 323 319 316 314 313 311 310 307 304 300 294 290 289 288 286 282 279 274 268 265 264 265 263 261 261 260 259
338 337 337 337 336 335 334 332 330 329 327 325 322 320 318 316 315 313 310 307 304 299 292 289 287 285 283 282 278 274 268 265 265 264 262 260 259 258
342 341 339 338 337 336 335 334 333 330 328 326 325 323 320 318 317 315 313 309 306 302 296 291 288 285 283 282 280 278 274 270 269 267 265 263 260 258
343 342 340 339 338 337 337 336 335 334 332 329 326 325 322 319 318 316 314 312 310 306 301 296 292 288 285 282 280 279 276 274 272 269 267 267 264 260
Height
5758 5755 5751 5748 5745 5742 5739 5736 5734 5732 5729 5726 5723 5720 5718 5717 5715 5715 5714 5713 5713 5712 5712 5713 5714 5715 5716 5717 5719 5721 5722 5724 5725 5727 5729 5731 5733 5736
5752 5749 5746 5742 5739 5736 5733 5730 5727 5725 5723 5720 5717 5714 5712 5710 5708 5707 5706 5706 5705 5704 5704 5704 5705 5706 5707 5708 5709 5710 5712 5714 5715 5717 5719 5721 5723 5726
5747 5744 5740 5737 5733 5730 5727 5724 5721 5719 5716 5714 5711 5708 5705 5704 5702 5701 5699 5698 5697 5697 5697 5697 5697 5697 5697 5698 5699 5701 5702 5703 5705 5707 5708 5711 5713 5716
5742 5738 5735 5731 5728 5725 5721 5718 5715 5713 5710 5708 5705 5702 5700 5698 5696 5694 5692 5691 5690 5689 5688 5688 5688 5688 5688 5689 5690 5691 5693 5694 5696 5697 5699 5701 5704 5706
5736 5733 5729 5726 5723 5719 5716 5713 5710 5707 5704 5702 5700 5697 5694 5692 5690 5688 5686 5684 5683 5682 5681 5680 5680 5680 5680 5681 5681 5682 5684 5685 5686 5688 5689 5692 5694 5697
5731 5728 5724 5721 5718 5714 5711 5707 5704 5701 5699 5696 5694 5692 5689 5686 5684 5682 5680 5678 5676 5674 5673 5672 5672 5671 5672 5672 5673 5673 5674 5676 5677 5678 5680 5682 5685 5688
5726 5723 5719 5716 5712 5709 5705 5702 5699 5696 5693 5690 5688 5686 5683 5680 5678 5676 5673 5671 5669 5667 5666 5665 5664 5663 5663 5663 5663 5664 5665 5667 5668 5670 5672 5674 5676 5679
5721 5718 5714 5711 5708 5704 5700 5697 5694 5690 5687 5685 5682 5679 5677 5675 5672 5669 5667 5664 5663 5661 5659 5657 5656 5655 5655 5655 5655 5656 5656 5657 5659 5661 5663 5665 5667 5670
5716 5713 5709 5706 5702 5699 5696 5692 5688 5685 5682 5679 5676 5673 5670 5668 5665 5663 5660 5658 5656 5653 5651 5650 5648 5647 5646 5645 5646 5646 5647 5649 5650 5652 5654 5657 5659 5661
5712 5708 5704 5701 5697 5694 5690 5686 5683 5679 5676 5672 5670 5666 5663 5660 5657 5655 5653 5651 5648 5646 5643 5642 5641 5639 5638 5637 5637 5638 5638 5640 5641 5643 5645 5648 5650 5652
5707 5703 5700 5696 5692 5688 5684 5681 5677 5673 5669 5665 5662 5659 5655 5652 5649 5647 5645 5642 5640 5638 5636 5634 5633 5631 5630 5629 5629 5630 5630 5631 5633 5635 5637 5639 5641 5643
5703 5699 5695 5691 5687 5682 5678 5674 5670 5666 5662 5658 5655 5651 5648 5645 5642 5639 5636 5634 5632 5631 5629 5627 5625 5623 5622 5622 5622 5622 5622 5623 5624 5626 5628 5630 5632 5634
5698 5695 5690 5686 5682 5677 5673 5668 5664 5660 5656 5652 5648 5644 5641 5638 5634 5632 5629 5626 5625 5623 5621 5619 5618 5616 5615 5615 5614 5614 5615 5615 5616 5618 5620 5621 5623 5625
5694 5690 5686 5681 5676 5672 5667 5662 5658 5653 5649 5645 5641 5637 5634 5630 5627 5624 5622 5620 5618 5615 5614 5612 5611 5609 5608 5607 5607 5607 5607 5608 5609 5610 5612 5613 5615 5617
5690 5685 5680 5676 5671 5666 5661 5656 5652 5647 5643 5639 5634 5631 5627 5623 5620 5618 5615 5613 5611 5608 5606 5605 5603 5602 5601 5600 5600 5600 5600 5601 5601 5602 5604 5605 5607 5608
5685 5680 5675 5670 5665 5660 5655 5650 5646 5641 5636 5632 5628 5624 5621 5617 5614 5611 5609 5606 5604 5602 5599 5598 5596 5595 5593 5592 5592 5592 5592 5593 5594 5595 5596 5597 5598 5600
5680 5675 5670 5665 5660 5654 5650 5644 5640 5635 5631 5626 5622 5618 5615 5611 5608 5605 5602 5599 5597 5595 5592 5591 5589 5588 5586 5585 5585 5584 5585 5585 5586 5587 5588 5589 5590 5591
5676 5671 5665 5660 5654 5649 5644 5639 5634 5630 5625 5620 5616 5612 5608 5605 5601 5598 5595 5592 5589 5587 5585 5584 5582 5580 5579 5578 5577 5577 5577 5577 5578 5578 5579 5580 5581 5582
5672 5666 5661 5655 5649 5644 5639 5634 5629 5624 5619 5614 5610 5606 5602 5598 5594 5591 5588 5585 5582 5580 5578 5576 5574 5573 5572 5571 5570 5569 5569 5569 5569 5569 5570 5571 5572 5573
5668 5662 5656 5650 5645 5639 5634 5628 5623 5618 5613 5608 5603 5599 5595 5591 5587 5584 5580 5577 5574 5572 5570 5568 5566 5565 5563 5563 5562 5562 5561 5561 5561 5561 5561 5562 5563 5563
5664 5658 5652 5646 5640 5635 5629 5623 5618 5613 5607 5602 5597 5593 5588 5584 5580 5577 5573 5570 5567 5565 5562 5561 5558 5557 5555 5555 5554 5553 5553 5552 5552 5552 5553 5553 5554 5554
5660 5655 5648 5642 5636 5630 5624 5618 5613 5607 5601 5596 5591 5586 5582 5578 5574 5570 5566 5563 5560 5557 5554 5552 5550 5549 5548 5547 5546 5545 5545 5544 5544 5544 5544 5544 5544 5546
5657 5651 5645 5638 5632 5626 5620 5614 5607 5601 5596 5590 5585 5580 5576 5571 5567 5563 5560 5556 5553 5550 5547 5545 5543 5541 5539 5538 5538 5537 5536 5536 5535 5535 5536 5536 5536 5537